Location: Unspecified
(0.0000°N, 0.0000°E)
Time: 09:13:27
(UTC+00:00)

Transit 2A Rocket - All Passes

Search period start: 03 April 2020 00:00
Search period end: 13 April 2020 00:00
Orbit: 589 x 914 km, 66.7° (Epoch: 02 April)

Date Brightness Start Highest point End Pass type
(mag) Time Alt. Az. Time Alt. Az. Time Alt. Az.
03 Apr - 10:46:29 10° SSW 10:50:46 83° ESE 10:55:03 10° NNE daylight
03 Apr - 21:34:22 10° NNE 21:38:20 18° ENE 21:42:19 10° ESE night (unlit)
03 Apr - 23:15:07 10° NW 23:20:44 40° WSW 23:26:20 10° S night (unlit)
04 Apr - 10:04:27 10° S 10:08:18 32° ESE 10:12:08 10° NE daylight
04 Apr - 22:32:10 10° NNW 22:38:15 78° WSW 22:44:17 10° SSE night (unlit)
05 Apr - 09:23:38 10° SE 09:25:49 14° ESE 09:27:58 10° E daylight
05 Apr - 11:04:46 10° WSW 11:08:03 22° WNW 11:11:22 10° NNW daylight
05 Apr - 21:49:49 10° N 21:55:44 55° ENE 22:01:38 10° SSE night (unlit)
05 Apr - 23:35:39 10° W 23:38:09 13° WSW 23:40:39 10° SW night (unlit)
06 Apr - 10:21:24 10° SSW 10:25:34 53° WNW 10:29:46 10° N daylight
06 Apr - 21:08:09 10° NNE 21:13:14 28° ENE 21:18:19 10° SE night (unlit)
06 Apr - 22:50:42 10° NW 22:55:37 26° WSW 23:00:31 10° SSW night (unlit)
07 Apr - 09:38:53 10° S 09:43:05 59° ESE 09:47:20 10° NNE daylight
07 Apr - 20:27:40 10° NE 20:30:41 14° ENE 20:33:42 10° E night (unlit)
07 Apr - 22:07:15 10° NW 22:13:07 50° WSW 22:18:56 10° S night (unlit)
08 Apr - 08:57:09 10° SSE 09:00:37 24° ESE 09:04:05 10° NE daylight
08 Apr - 10:41:07 10° W 10:42:53 12° WNW 10:44:39 10° NW daylight
08 Apr - 21:24:31 10° NNW 21:30:37 84° ENE 21:36:40 10° SSE night (unlit)
09 Apr - 09:56:40 10° SW 10:00:21 29° WNW 10:04:07 10° N daylight
09 Apr - 20:42:24 10° N 20:48:07 43° ENE 20:53:49 10° SE visible
09 Apr - 22:26:51 10° WNW 22:30:30 16° WSW 22:34:07 10° SSW night (unlit)
10 Apr - 09:13:38 10° SSW 09:17:53 74° WNW 09:22:12 10° NNE daylight
10 Apr - 20:01:00 10° NNE 20:05:36 22° ENE 20:10:09 10° ESE visible
10 Apr - 21:42:39 10° NW 21:47:59 32° WSW 21:53:17 10° S visible
11 Apr - 08:31:22 10° S 08:35:25 42° ESE 08:39:30 10° NE daylight
11 Apr - 19:21:52 10° ENE 19:23:02 11° ENE 19:24:13 10° E visible
11 Apr - 20:59:28 10° NNW 21:05:30 63° WSW 21:11:26 10° S visible
12 Apr - 07:50:02 10° SSE 07:52:56 18° ESE 07:55:52 10° ENE daylight
12 Apr - 09:32:25 10° WSW 09:35:11 17° WNW 09:37:59 10° NNW daylight
12 Apr - 20:16:57 10° NNW 20:23:00 67° ENE 20:28:58 10° SSE visible
